THY9 LTFM-KLAX

Flight info

Callsign THY9
Flight time N/A
Altitude 30000
Route VADEN N618 GOL DCT UTEKA DCT SMI DCT ADULA DCT OBUTI/N0489F320 DCT DEXIT DCT MAPOX DCT BIGGE DCT RAVLO Y70 OTBED L60 PENIL M144 BAGSO DCT REVNU DCT PIKIL/M083F340 DCT 56N020W 56N030W 56N040W 56N050W DCT JANJO/N0481F340 DCT DENSO DCT AGLOL/N0482F360 DCT MERNU DCT XEXUL DCT BLUOX DCT RAP J158 DDY/N0470F380 J107 NORRA J100 LAS Q70 HAILO DCT KOPLE BOGET2
Aircraft B77W/H-SDE1E2E3FGHIJ2J3J4J5M1RWXY/LB1D1

Departure

Time N/A
Airport İstanbul Airport (LTFM)

Arrival

Time 2026-04-21 11:06
Airport Los Angeles International Airport (KLAX)
Time Latitude Longitude Altitude Speed Heading
2026-04-21 05:26 53.74465 -68.98744 36272 ft 478 kts 269°
2026-04-21 05:26 53.74533 -69.04358 36282 ft 478 kts 269°
2026-04-21 05:27 53.74662 -69.15502 36273 ft 477 kts 269°
2026-04-21 05:27 53.74781 -69.26707 36291 ft 477 kts 269°
2026-04-21 05:28 53.74890 -69.37917 36285 ft 477 kts 269°
2026-04-21 05:28 53.74988 -69.49128 36288 ft 477 kts 269°
2026-04-21 05:29 53.75075 -69.60243 36282 ft 477 kts 269°
2026-04-21 05:29 53.75153 -69.71439 36285 ft 476 kts 269°
2026-04-21 05:30 53.75219 -69.82635 36305 ft 476 kts 269°
2026-04-21 05:30 53.75276 -69.93809 36289 ft 476 kts 269°
2026-04-21 05:31 53.75322 -70.04922 36289 ft 476 kts 269°
2026-04-21 05:31 53.75357 -70.16081 36287 ft 475 kts 268°
2026-04-21 05:32 53.75383 -70.27250 36289 ft 475 kts 268°
2026-04-21 05:32 53.75397 -70.38414 36294 ft 475 kts 268°
2026-04-21 05:33 53.75402 -70.49499 36295 ft 475 kts 268°
2026-04-21 05:33 53.75396 -70.60660 36293 ft 475 kts 268°
2026-04-21 05:34 53.75380 -70.71809 36293 ft 475 kts 268°
2026-04-21 05:34 53.75353 -70.82952 36294 ft 474 kts 268°
2026-04-21 05:35 53.75316 -70.94033 36302 ft 475 kts 268°
2026-04-21 05:35 53.75269 -71.05190 36283 ft 475 kts 268°
2026-04-21 05:36 53.75212 -71.16321 36290 ft 474 kts 268°
2026-04-21 05:36 53.75144 -71.27464 36290 ft 474 kts 268°
2026-04-21 05:37 53.75067 -71.38526 36286 ft 474 kts 268°
2026-04-21 05:37 53.74978 -71.49662 36297 ft 473 kts 268°
2026-04-21 05:38 53.74880 -71.60774 36280 ft 473 kts 268°
2026-04-21 05:38 53.74771 -71.71860 36283 ft 472 kts 268°
2026-04-21 05:39 53.74653 -71.82934 36278 ft 471 kts 268°
2026-04-21 05:39 53.74525 -71.93909 36282 ft 470 kts 268°
2026-04-21 05:40 53.74387 -72.04953 36286 ft 470 kts 268°
2026-04-21 05:40 53.74238 -72.16001 36275 ft 470 kts 268°
2026-04-21 05:41 53.74079 -72.27018 36272 ft 470 kts 268°
2026-04-21 05:41 53.73912 -72.37976 36271 ft 469 kts 268°
2026-04-21 05:42 53.73733 -72.49002 36272 ft 470 kts 268°
2026-04-21 05:42 53.73543 -72.60025 36271 ft 469 kts 268°
2026-04-21 05:43 53.73345 -72.71028 36264 ft 469 kts 268°
2026-04-21 05:43 53.73139 -72.81947 36263 ft 468 kts 268°
2026-04-21 05:44 53.72921 -72.92921 36263 ft 467 kts 268°
2026-04-21 05:44 53.72693 -73.03869 36265 ft 467 kts 268°
2026-04-21 05:45 53.72455 -73.14811 36260 ft 466 kts 268°
2026-04-21 05:45 53.72210 -73.25668 36254 ft 465 kts 268°
2026-04-21 05:46 53.71954 -73.36573 36250 ft 465 kts 268°
2026-04-21 05:46 53.71688 -73.47469 36249 ft 464 kts 268°
2026-04-21 05:47 53.71414 -73.58366 36246 ft 464 kts 268°
2026-04-21 05:47 53.71107 -73.69175 36247 ft 464 kts 265°
2026-04-21 05:48 53.70076 -73.79922 36251 ft 465 kts 259°
2026-04-21 05:48 53.68799 -73.90623 36237 ft 465 kts 259°
2026-04-21 05:49 53.67742 -73.99509 36232 ft 465 kts 259°
2026-04-21 05:49 53.66278 -74.11938 36244 ft 465 kts 259°
2026-04-21 05:50 53.65018 -74.22634 36240 ft 465 kts 259°
2026-04-21 05:50 53.63963 -74.31518 36240 ft 465 kts 259°
2026-04-21 05:51 53.62686 -74.42203 36241 ft 465 kts 259°
2026-04-21 05:51 53.61400 -74.52868 36238 ft 465 kts 259°
2026-04-21 05:52 53.59893 -74.65253 36240 ft 464 kts 259°
2026-04-21 05:52 53.58810 -74.74090 36236 ft 464 kts 259°
2026-04-21 05:53 53.57497 -74.84722 36235 ft 464 kts 259°
2026-04-21 05:53 53.55961 -74.97051 36228 ft 463 kts 259°
2026-04-21 05:54 53.54847 -75.05926 36219 ft 463 kts 259°
2026-04-21 05:54 53.53521 -75.16423 36224 ft 462 kts 259°
2026-04-21 05:55 53.52177 -75.26972 36226 ft 461 kts 259°
2026-04-21 05:55 53.50824 -75.37516 36220 ft 461 kts 259°
2026-04-21 05:56 53.49473 -75.47968 36222 ft 461 kts 259°
2026-04-21 05:56 53.48105 -75.58479 36222 ft 461 kts 259°
2026-04-21 05:57 53.46727 -75.68981 36210 ft 461 kts 258°
2026-04-21 05:57 53.45341 -75.79470 36212 ft 460 kts 258°
2026-04-21 05:58 53.43946 -75.89955 36208 ft 460 kts 258°
2026-04-21 05:58 53.42551 -76.00357 36210 ft 461 kts 258°
2026-04-21 05:59 53.41137 -76.10831 36197 ft 460 kts 258°
2026-04-21 06:00 53.39000 -76.26512 36202 ft 460 kts 258°
2026-04-21 06:00 53.37565 -76.36956 36193 ft 460 kts 258°
2026-04-21 06:01 53.36131 -76.47321 36191 ft 460 kts 258°
2026-04-21 06:01 53.34676 -76.57758 36179 ft 460 kts 258°
2026-04-21 06:02 53.33212 -76.68192 36180 ft 460 kts 257°
2026-04-21 06:02 53.31740 -76.78611 36173 ft 460 kts 257°
2026-04-21 06:03 53.30268 -76.88953 36172 ft 460 kts 257°
2026-04-21 06:03 53.28778 -76.99361 36164 ft 460 kts 257°
2026-04-21 06:04 53.27278 -77.09759 36162 ft 460 kts 257°
2026-04-21 06:04 53.25770 -77.20149 36157 ft 460 kts 257°
2026-04-21 06:05 53.24263 -77.30460 36148 ft 460 kts 257°
2026-04-21 06:05 53.22738 -77.40832 36150 ft 460 kts 257°
2026-04-21 06:06 53.21202 -77.51198 36133 ft 460 kts 257°
2026-04-21 06:06 53.19658 -77.61559 36133 ft 460 kts 257°
2026-04-21 06:07 53.18115 -77.71841 36119 ft 460 kts 257°
2026-04-21 06:07 53.16553 -77.82186 36129 ft 460 kts 257°
2026-04-21 06:08 53.14981 -77.92536 36104 ft 461 kts 257°
2026-04-21 06:08 53.13400 -78.02866 36090 ft 461 kts 257°
2026-04-21 06:09 53.11821 -78.13130 36083 ft 460 kts 257°
2026-04-21 06:09 53.10223 -78.23449 36077 ft 460 kts 257°
2026-04-21 06:10 53.08617 -78.33753 36078 ft 460 kts 257°
2026-04-21 06:10 53.07000 -78.44056 36071 ft 460 kts 257°
2026-04-21 06:11 53.05376 -78.54350 36080 ft 460 kts 257°
2026-04-21 06:11 53.03755 -78.64563 36046 ft 460 kts 257°
2026-04-21 06:12 53.02116 -78.74829 36046 ft 460 kts 256°
2026-04-21 06:12 53.00144 -78.84947 36038 ft 462 kts 249°
2026-04-21 06:13 52.97258 -78.94491 36040 ft 463 kts 245°
2026-04-21 06:13 52.94307 -79.03937 36013 ft 464 kts 245°
2026-04-21 06:14 52.91354 -79.13439 36013 ft 464 kts 245°
2026-04-21 06:14 52.88405 -79.22949 36011 ft 464 kts 245°
2026-04-21 06:15 52.85454 -79.32447 35993 ft 464 kts 245°
2026-04-21 06:15 52.82512 -79.41877 35996 ft 464 kts 245°
2026-04-21 06:16 52.79540 -79.51362 35992 ft 464 kts 245°
2026-04-21 06:16 52.76563 -79.60821 35993 ft 464 kts 245°
2026-04-21 06:17 52.73581 -79.70266 35991 ft 464 kts 245°
2026-04-21 06:17 52.70614 -79.79625 35996 ft 463 kts 245°
2026-04-21 06:18 52.67625 -79.89016 35993 ft 463 kts 245°
2026-04-21 06:18 52.64618 -79.98426 35978 ft 463 kts 245°
2026-04-21 06:19 52.61612 -80.07801 35980 ft 463 kts 245°
2026-04-21 06:19 52.58619 -80.17098 35959 ft 463 kts 245°
2026-04-21 06:20 52.55599 -80.26442 35964 ft 462 kts 245°
2026-04-21 06:20 52.52578 -80.35753 35972 ft 462 kts 245°
2026-04-21 06:21 52.49550 -80.45053 35959 ft 462 kts 245°
2026-04-21 06:21 52.46533 -80.54282 35952 ft 462 kts 245°
2026-04-21 06:22 52.43491 -80.63554 35950 ft 462 kts 245°
2026-04-21 06:22 52.40436 -80.72831 35951 ft 463 kts 245°
2026-04-21 06:23 52.38497 -80.78698 35940 ft 463 kts 245°
2026-04-21 06:23 52.35451 -80.87892 35935 ft 463 kts 245°
2026-04-21 06:24 52.32379 -80.97130 35936 ft 463 kts 245°
2026-04-21 06:24 52.29295 -81.06369 35944 ft 463 kts 245°
2026-04-21 06:25 52.26209 -81.15580 35934 ft 463 kts 245°
2026-04-21 06:25 52.23133 -81.24724 35932 ft 463 kts 245°
2026-04-21 06:26 52.20026 -81.33927 35912 ft 463 kts 246°
2026-04-21 06:26 52.16920 -81.43093 35923 ft 462 kts 246°
2026-04-21 06:27 52.13807 -81.52249 35922 ft 462 kts 246°
2026-04-21 06:27 52.10711 -81.61319 35924 ft 461 kts 245°
2026-04-21 06:28 52.07590 -81.70430 35920 ft 461 kts 246°
2026-04-21 06:28 52.04463 -81.79526 35918 ft 461 kts 246°
2026-04-21 06:29 52.01327 -81.88615 35919 ft 462 kts 246°
2026-04-21 06:29 51.98201 -81.97638 35909 ft 461 kts 246°
2026-04-21 06:30 51.95053 -82.06699 35908 ft 461 kts 246°
2026-04-21 06:30 51.91898 -82.15743 35916 ft 461 kts 246°
2026-04-21 06:31 51.89971 -82.21253 35892 ft 461 kts 246°
2026-04-21 06:31 51.86825 -82.30220 35902 ft 461 kts 246°
2026-04-21 06:32 51.83654 -82.39224 35909 ft 461 kts 246°
2026-04-21 06:32 51.80476 -82.48219 35875 ft 461 kts 246°
2026-04-21 06:33 51.77290 -82.57202 35890 ft 460 kts 246°
2026-04-21 06:33 51.74103 -82.66158 35889 ft 460 kts 246°
2026-04-21 06:34 51.70938 -82.75018 35878 ft 459 kts 246°
2026-04-21 06:34 51.67739 -82.83945 35874 ft 459 kts 246°
2026-04-21 06:35 51.65520 -82.90116 35881 ft 459 kts 246°
2026-04-21 06:35 51.62321 -82.98992 35886 ft 458 kts 246°
2026-04-21 06:36 51.59135 -83.07796 35862 ft 458 kts 247°
2026-04-21 06:36 51.55927 -83.16631 35874 ft 458 kts 247°
2026-04-21 06:37 51.52714 -83.25456 35875 ft 457 kts 246°
2026-04-21 06:37 51.49496 -83.34258 35872 ft 457 kts 247°
2026-04-21 06:38 51.46267 -83.43061 35879 ft 458 kts 247°
2026-04-21 06:38 51.43052 -83.51795 35872 ft 458 kts 247°
2026-04-21 06:39 51.39804 -83.60586 35837 ft 459 kts 247°
2026-04-21 06:39 51.36550 -83.69365 35858 ft 458 kts 247°
2026-04-21 06:40 51.33293 -83.78120 35868 ft 458 kts 247°
2026-04-21 06:40 51.30054 -83.86796 35861 ft 458 kts 247°
2026-04-21 06:41 51.26788 -83.95520 35862 ft 457 kts 247°
2026-04-21 06:41 51.23518 -84.04225 35872 ft 457 kts 247°
2026-04-21 06:42 51.20241 -84.12918 35861 ft 457 kts 247°
2026-04-21 06:42 51.16956 -84.21599 35859 ft 457 kts 247°
2026-04-21 06:43 51.13691 -84.30201 35857 ft 457 kts 247°
2026-04-21 06:43 51.10405 -84.38824 35856 ft 455 kts 248°
2026-04-21 06:44 51.07120 -84.47425 35860 ft 455 kts 247°
2026-04-21 06:44 51.03833 -84.55999 35855 ft 454 kts 247°
2026-04-21 06:45 51.00562 -84.64503 35860 ft 454 kts 247°
2026-04-21 06:45 50.97262 -84.73053 35855 ft 454 kts 247°
2026-04-21 06:46 50.93958 -84.81587 35858 ft 454 kts 247°
2026-04-21 06:46 50.90646 -84.90112 35857 ft 454 kts 247°
2026-04-21 06:47 50.87349 -84.98571 35855 ft 454 kts 247°
2026-04-21 06:47 50.84023 -85.07077 35858 ft 455 kts 247°
2026-04-21 06:48 50.80687 -85.15580 35856 ft 455 kts 247°
2026-04-21 06:48 50.77343 -85.24076 35831 ft 455 kts 247°
2026-04-21 06:49 50.73995 -85.32551 35840 ft 455 kts 247°
2026-04-21 06:49 50.70671 -85.40939 35850 ft 453 kts 247°
2026-04-21 06:50 50.67326 -85.49352 35860 ft 452 kts 247°
2026-04-21 06:50 50.63982 -85.57739 35861 ft 452 kts 247°
2026-04-21 06:51 50.60638 -85.66099 35868 ft 451 kts 247°
2026-04-21 06:51 50.57287 -85.74451 35864 ft 451 kts 247°
2026-04-21 06:52 50.53958 -85.82718 35839 ft 450 kts 247°
2026-04-21 06:52 50.50608 -85.91011 35862 ft 449 kts 247°
2026-04-21 06:53 50.47256 -85.99286 35872 ft 449 kts 247°
2026-04-21 06:53 50.43922 -86.07491 35877 ft 449 kts 247°
2026-04-21 06:54 50.40552 -86.15756 35876 ft 450 kts 246°
2026-04-21 06:54 50.37179 -86.24002 35878 ft 450 kts 246°
2026-04-21 06:55 50.33797 -86.32244 35835 ft 449 kts 247°
2026-04-21 06:55 50.30416 -86.40460 35871 ft 449 kts 246°
2026-04-21 06:56 50.27047 -86.48622 35887 ft 450 kts 246°
2026-04-21 06:56 50.23648 -86.56835 35888 ft 451 kts 246°
2026-04-21 06:57 50.20228 -86.65069 35885 ft 452 kts 246°
2026-04-21 06:57 50.17210 -86.73546 35880 ft 439 kts 256°
2026-04-21 06:58 50.14948 -86.82292 35830 ft 438 kts 257°
2026-04-21 06:58 50.12649 -86.91078 35872 ft 438 kts 257°
2026-04-21 06:59 50.10327 -86.99862 35887 ft 439 kts 256°
2026-04-21 06:59 50.07991 -87.08640 35886 ft 440 kts 256°
2026-04-21 07:00 50.05639 -87.17439 35888 ft 440 kts 256°
2026-04-21 07:00 50.03296 -87.26168 35889 ft 440 kts 256°
2026-04-21 07:01 50.00932 -87.34944 35884 ft 440 kts 256°
2026-04-21 07:01 49.97371 -87.48106 35878 ft 441 kts 256°
2026-04-21 07:02 49.94985 -87.56884 35879 ft 441 kts 256°
2026-04-21 07:02 49.92613 -87.65575 35883 ft 440 kts 256°
2026-04-21 07:03 49.90214 -87.74334 35849 ft 441 kts 256°
2026-04-21 07:03 49.87809 -87.83081 35877 ft 441 kts 256°
2026-04-21 07:04 49.85397 -87.91828 35887 ft 442 kts 256°
2026-04-21 07:04 49.82987 -88.00531 35884 ft 443 kts 255°
2026-04-21 07:05 49.80549 -88.09302 35883 ft 443 kts 255°
2026-04-21 07:05 49.78104 -88.18060 35880 ft 444 kts 255°
2026-04-21 07:06 49.75654 -88.26806 35873 ft 443 kts 255°
2026-04-21 07:06 49.73216 -88.35477 35834 ft 442 kts 255°
2026-04-21 07:07 49.70761 -88.44177 35876 ft 442 kts 255°
2026-04-21 07:07 49.68300 -88.52871 35880 ft 442 kts 255°
2026-04-21 07:08 49.65831 -88.61562 35885 ft 443 kts 255°
2026-04-21 07:08 49.63366 -88.70202 35872 ft 443 kts 254°
2026-04-21 07:09 49.60880 -88.78887 35886 ft 443 kts 254°
2026-04-21 07:09 49.58386 -88.87569 35893 ft 443 kts 254°
2026-04-21 07:10 49.55884 -88.96245 35896 ft 443 kts 254°
2026-04-21 07:10 49.53388 -89.04867 35893 ft 444 kts 254°
2026-04-21 07:11 49.50873 -89.13529 35866 ft 443 kts 253°
2026-04-21 07:11 49.48353 -89.22172 35896 ft 443 kts 253°
2026-04-21 07:12 49.45828 -89.30803 35897 ft 443 kts 253°
2026-04-21 07:12 49.43309 -89.39385 35906 ft 444 kts 253°
2026-04-21 07:13 49.40765 -89.48022 35904 ft 444 kts 253°
2026-04-21 07:13 49.38211 -89.56659 35906 ft 444 kts 253°
2026-04-21 07:14 49.35652 -89.65284 35904 ft 445 kts 253°
2026-04-21 07:14 49.33083 -89.73910 35906 ft 445 kts 253°
2026-04-21 07:15 49.30526 -89.82468 35904 ft 444 kts 253°
2026-04-21 07:15 49.27952 -89.91051 35901 ft 444 kts 252°
2026-04-21 07:16 49.25366 -89.99641 35884 ft 444 kts 252°
2026-04-21 07:16 49.22777 -90.08214 35903 ft 444 kts 252°
2026-04-21 07:17 49.20198 -90.16727 35909 ft 444 kts 252°
2026-04-21 07:17 49.17593 -90.25293 35907 ft 445 kts 251°
2026-04-21 07:18 49.14979 -90.33861 35903 ft 445 kts 251°
2026-04-21 07:18 49.12356 -90.42424 35909 ft 445 kts 251°
2026-04-21 07:19 49.09747 -90.50917 35894 ft 445 kts 251°
2026-04-21 07:19 49.07113 -90.59457 35882 ft 445 kts 251°
2026-04-21 07:20 49.04474 -90.67984 35897 ft 445 kts 251°
2026-04-21 07:20 49.01830 -90.76504 35899 ft 445 kts 250°
2026-04-21 07:21 48.99190 -90.84975 35905 ft 446 kts 250°
2026-04-21 07:21 48.96529 -90.93491 35896 ft 446 kts 250°
2026-04-21 07:22 48.93858 -91.02006 35905 ft 446 kts 250°
2026-04-21 07:22 48.91179 -91.10515 35902 ft 446 kts 250°
2026-04-21 07:23 48.88511 -91.18965 35901 ft 446 kts 250°
2026-04-21 07:23 48.85819 -91.27457 35892 ft 446 kts 250°
2026-04-21 07:24 48.83124 -91.35934 35898 ft 446 kts 249°
2026-04-21 07:24 48.80421 -91.44406 35899 ft 446 kts 249°
2026-04-21 07:25 48.77730 -91.52812 35893 ft 446 kts 249°
2026-04-21 07:25 48.75014 -91.61269 35897 ft 446 kts 249°
2026-04-21 07:26 48.72292 -91.69717 35894 ft 446 kts 249°
2026-04-21 07:26 48.69562 -91.78159 35882 ft 447 kts 249°
2026-04-21 07:27 48.66843 -91.86540 35894 ft 447 kts 249°
2026-04-21 07:27 48.64103 -91.94956 35898 ft 447 kts 249°
2026-04-21 07:28 48.61347 -92.03394 35893 ft 447 kts 249°
2026-04-21 07:28 48.58587 -92.11819 35898 ft 448 kts 249°
2026-04-21 07:29 48.55833 -92.20197 35890 ft 449 kts 248°
2026-04-21 07:29 48.53049 -92.28635 35902 ft 449 kts 248°
2026-04-21 07:30 48.50257 -92.37071 35901 ft 450 kts 248°
2026-04-21 07:30 48.47454 -92.45513 35903 ft 450 kts 248°
2026-04-21 07:31 48.44642 -92.53955 35903 ft 451 kts 248°
2026-04-21 07:31 48.41846 -92.62321 35894 ft 450 kts 248°
2026-04-21 07:32 48.39026 -92.70728 35899 ft 450 kts 247°
2026-04-21 07:32 48.36197 -92.79135 35900 ft 450 kts 247°
2026-04-21 07:33 48.33363 -92.87532 35905 ft 451 kts 247°
2026-04-21 07:33 48.30536 -92.95883 35900 ft 451 kts 247°
2026-04-21 07:34 48.27683 -93.04279 35896 ft 451 kts 246°
2026-04-21 07:34 48.24822 -93.12672 35903 ft 452 kts 246°
2026-04-21 07:35 48.21958 -93.21048 35904 ft 452 kts 246°
2026-04-21 07:35 48.19100 -93.29376 35914 ft 452 kts 246°
2026-04-21 07:36 48.16228 -93.37722 35902 ft 452 kts 246°
2026-04-21 07:36 48.13337 -93.46095 35912 ft 452 kts 246°
2026-04-21 07:37 48.10444 -93.54445 35929 ft 452 kts 246°
2026-04-21 07:37 48.07560 -93.62746 35932 ft 453 kts 246°
2026-04-21 07:38 48.04646 -93.71104 35921 ft 454 kts 246°
2026-04-21 07:38 48.01724 -93.79458 35927 ft 454 kts 246°
2026-04-21 07:39 47.98794 -93.87808 35941 ft 454 kts 246°
2026-04-21 07:39 47.95865 -93.96129 35943 ft 454 kts 245°
2026-04-21 07:40 47.92914 -94.04487 35934 ft 454 kts 245°
2026-04-21 07:40 47.89987 -94.12750 35935 ft 454 kts 245°
2026-04-21 07:41 47.87033 -94.21063 35934 ft 454 kts 245°
2026-04-21 07:41 47.84072 -94.29367 35934 ft 454 kts 245°
2026-04-21 07:42 47.81104 -94.37668 35940 ft 454 kts 245°
2026-04-21 07:42 47.78149 -94.45905 35942 ft 454 kts 245°
2026-04-21 07:43 47.75167 -94.54191 35943 ft 455 kts 245°
2026-04-21 07:43 47.72179 -94.62470 35945 ft 455 kts 245°
2026-04-21 07:44 47.69186 -94.70732 35912 ft 454 kts 245°
2026-04-21 07:44 47.66209 -94.78930 35912 ft 454 kts 245°
2026-04-21 07:45 47.63206 -94.87172 35900 ft 455 kts 245°
2026-04-21 07:45 47.60191 -94.95426 35900 ft 455 kts 245°
2026-04-21 07:46 47.57168 -95.03661 35894 ft 455 kts 244°
2026-04-21 07:46 47.54053 -95.11738 35903 ft 456 kts 243°
2026-04-21 07:47 47.50853 -95.19842 35906 ft 456 kts 243°
2026-04-21 07:47 47.47654 -95.27945 35912 ft 456 kts 243°
2026-04-21 07:48 47.44464 -95.36044 35911 ft 456 kts 243°
2026-04-21 07:48 47.41290 -95.44095 35900 ft 456 kts 243°
2026-04-21 07:49 47.38092 -95.52182 35909 ft 457 kts 243°
2026-04-21 07:49 47.34883 -95.60273 35911 ft 457 kts 243°
2026-04-21 07:50 47.31665 -95.68360 35909 ft 457 kts 243°
2026-04-21 07:50 47.28440 -95.76444 35905 ft 458 kts 243°
2026-04-21 07:51 47.25230 -95.84461 35903 ft 457 kts 243°
2026-04-21 07:51 47.21996 -95.92518 35894 ft 457 kts 243°
2026-04-21 07:52 47.18758 -96.00559 35893 ft 457 kts 243°
2026-04-21 07:52 47.15526 -96.08563 35907 ft 456 kts 242°
2026-04-21 07:53 47.12298 -96.16534 35906 ft 456 kts 242°
2026-04-21 07:53 47.09048 -96.24530 35894 ft 456 kts 243°
2026-04-21 07:54 47.05800 -96.32506 35906 ft 455 kts 243°
2026-04-21 07:54 47.02548 -96.40467 35901 ft 455 kts 243°
2026-04-21 07:55 46.99287 -96.48426 35887 ft 455 kts 243°
2026-04-21 07:55 46.96047 -96.56309 35891 ft 455 kts 243°
2026-04-21 07:56 46.92783 -96.64224 35901 ft 454 kts 243°
2026-04-21 07:56 46.89515 -96.72133 35908 ft 454 kts 243°
2026-04-21 07:57 46.86242 -96.80030 35898 ft 454 kts 243°
2026-04-21 07:57 46.82987 -96.87861 35898 ft 454 kts 243°
2026-04-21 07:58 46.79699 -96.95744 35888 ft 454 kts 243°
2026-04-21 07:58 46.76411 -97.03607 35899 ft 454 kts 243°
2026-04-21 07:59 46.73124 -97.11448 35893 ft 453 kts 243°
2026-04-21 07:59 46.69833 -97.19275 35904 ft 453 kts 243°
2026-04-21 08:00 46.66562 -97.27033 35907 ft 453 kts 243°
2026-04-21 08:00 46.63262 -97.34834 35902 ft 452 kts 243°
2026-04-21 08:01 46.59967 -97.42605 35909 ft 452 kts 243°
2026-04-21 08:02 46.55031 -97.54205 35909 ft 452 kts 243°
2026-04-21 08:02 46.51721 -97.61957 35915 ft 452 kts 243°
2026-04-21 08:03 46.48405 -97.69700 35914 ft 452 kts 243°
2026-04-21 08:03 46.45084 -97.77432 35916 ft 452 kts 243°
2026-04-21 08:04 46.41754 -97.85167 35910 ft 452 kts 243°
2026-04-21 08:04 46.38444 -97.92831 35911 ft 452 kts 243°
2026-04-21 08:05 46.35106 -98.00540 35910 ft 452 kts 243°
2026-04-21 08:05 46.31758 -98.08249 35914 ft 452 kts 243°
2026-04-21 08:06 46.28412 -98.15933 35917 ft 452 kts 243°
2026-04-21 08:06 46.25080 -98.23563 35911 ft 452 kts 243°
2026-04-21 08:07 46.21720 -98.31238 35917 ft 452 kts 243°
2026-04-21 08:07 46.18352 -98.38910 35927 ft 452 kts 243°
2026-04-21 08:08 46.14982 -98.46563 35923 ft 452 kts 243°
2026-04-21 08:08 46.11625 -98.54168 35928 ft 452 kts 243°
2026-04-21 08:09 46.08240 -98.61814 35920 ft 453 kts 243°
2026-04-21 08:09 46.04848 -98.69457 35919 ft 453 kts 243°
2026-04-21 08:10 46.01451 -98.77089 35910 ft 453 kts 243°
2026-04-21 08:10 45.98047 -98.84715 35910 ft 453 kts 243°
2026-04-21 08:11 45.94662 -98.92279 35919 ft 453 kts 243°
2026-04-21 08:11 45.91246 -98.99893 35916 ft 453 kts 243°
2026-04-21 08:12 45.87824 -99.07499 35907 ft 454 kts 243°
2026-04-21 08:12 45.84415 -99.15054 35898 ft 454 kts 243°
2026-04-21 08:13 45.80981 -99.22647 35905 ft 454 kts 243°
2026-04-21 08:13 45.77535 -99.30243 35895 ft 455 kts 243°
2026-04-21 08:14 45.74083 -99.37834 35906 ft 455 kts 243°
2026-04-21 08:14 45.70617 -99.45432 35877 ft 456 kts 243°
2026-04-21 08:15 45.67171 -99.52968 35900 ft 456 kts 243°
2026-04-21 08:15 45.63693 -99.60555 35912 ft 457 kts 243°
2026-04-21 08:16 45.60207 -99.68139 35896 ft 457 kts 243°
2026-04-21 08:16 45.56713 -99.75718 35903 ft 457 kts 243°
2026-04-21 08:17 45.53210 -99.83295 35899 ft 457 kts 243°
2026-04-21 08:17 45.49726 -99.90814 35896 ft 457 kts 243°
2026-04-21 08:18 45.46215 -99.98368 35897 ft 457 kts 243°
2026-04-21 08:18 45.42699 -100.05917 35902 ft 457 kts 243°
2026-04-21 08:19 45.39175 -100.13460 35872 ft 457 kts 243°
2026-04-21 08:19 45.35678 -100.20926 35890 ft 457 kts 243°
2026-04-21 08:20 45.32151 -100.28435 35897 ft 456 kts 243°
2026-04-21 08:20 45.28625 -100.35925 35899 ft 456 kts 243°
2026-04-21 08:21 45.25086 -100.43422 35898 ft 457 kts 243°
2026-04-21 08:21 45.21568 -100.50855 35887 ft 457 kts 243°
2026-04-21 08:22 45.18021 -100.58329 35894 ft 457 kts 243°
2026-04-21 08:22 45.14470 -100.65793 35903 ft 457 kts 243°
2026-04-21 08:23 45.10914 -100.73245 35905 ft 457 kts 243°
2026-04-21 08:23 45.07376 -100.80643 35889 ft 457 kts 243°
2026-04-21 08:24 45.03810 -100.88078 35903 ft 456 kts 243°
2026-04-21 08:24 45.00241 -100.95502 35910 ft 457 kts 243°
2026-04-21 08:25 44.96663 -101.02925 35919 ft 457 kts 243°
2026-04-21 08:25 44.93076 -101.10348 35918 ft 458 kts 243°
2026-04-21 08:26 44.89512 -101.17704 35926 ft 458 kts 243°
2026-04-21 08:26 44.85905 -101.25129 35929 ft 458 kts 243°
2026-04-21 08:27 44.82295 -101.32539 35925 ft 458 kts 243°
2026-04-21 08:27 44.78684 -101.39934 35931 ft 458 kts 242°
2026-04-21 08:28 44.75086 -101.47284 35916 ft 459 kts 242°
2026-04-21 08:28 44.71463 -101.54665 35924 ft 459 kts 242°
2026-04-21 08:29 44.67840 -101.62028 35932 ft 459 kts 242°
2026-04-21 08:29 44.64191 -101.69426 35929 ft 460 kts 242°
2026-04-21 08:30 44.60568 -101.76749 35909 ft 460 kts 242°
2026-04-21 08:30 44.56916 -101.84114 35922 ft 460 kts 242°
2026-04-21 08:31 44.53256 -101.91477 35937 ft 461 kts 242°
2026-04-21 08:31 44.49587 -101.98841 35930 ft 462 kts 242°
2026-04-21 08:32 44.45894 -102.06232 35930 ft 463 kts 242°
2026-04-21 08:32 44.42216 -102.13572 35916 ft 464 kts 242°
2026-04-21 08:33 44.38505 -102.20961 35928 ft 465 kts 242°
2026-04-21 08:33 44.34786 -102.28349 35925 ft 465 kts 242°
2026-04-21 08:34 44.31053 -102.35744 35922 ft 466 kts 241°
2026-04-21 08:34 44.27339 -102.43082 35921 ft 466 kts 241°
2026-04-21 08:35 44.23595 -102.50462 35934 ft 466 kts 241°
2026-04-21 08:35 44.19844 -102.57836 35940 ft 466 kts 241°
2026-04-21 08:36 44.16088 -102.65202 35946 ft 466 kts 241°
2026-04-21 08:36 44.12355 -102.72505 35962 ft 466 kts 241°
2026-04-21 08:37 44.08589 -102.79854 35961 ft 466 kts 241°
2026-04-21 08:37 44.04825 -102.87182 35985 ft 465 kts 241°
2026-04-21 08:38 44.01062 -102.94492 35983 ft 465 kts 241°
2026-04-21 08:38 43.97658 -103.01964 36006 ft 457 kts 249°
2026-04-21 08:39 43.95276 -103.10035 36002 ft 450 kts 257°
2026-04-21 08:39 43.93229 -103.18229 35950 ft 450 kts 257°
2026-04-21 08:40 43.91163 -103.26433 35980 ft 450 kts 256°
2026-04-21 08:40 43.89076 -103.34612 36013 ft 451 kts 256°
2026-04-21 08:41 43.86969 -103.42812 36037 ft 451 kts 256°
2026-04-21 08:41 43.84869 -103.50950 36031 ft 452 kts 256°
2026-04-21 08:42 43.82750 -103.59130 36079 ft 451 kts 256°
2026-04-21 08:42 43.80627 -103.67303 36087 ft 451 kts 256°
2026-04-21 08:43 43.78856 -103.74097 36081 ft 451 kts 256°
2026-04-21 08:43 43.76723 -103.82261 36044 ft 452 kts 256°
2026-04-21 08:44 43.74229 -103.91769 36022 ft 453 kts 255°
2026-04-21 08:44 43.72442 -103.98555 36013 ft 453 kts 255°
2026-04-21 08:45 43.70275 -104.06758 35993 ft 454 kts 255°
2026-04-21 08:45 43.68100 -104.14967 35985 ft 455 kts 255°
2026-04-21 08:46 43.65562 -104.24508 35981 ft 455 kts 255°
2026-04-21 08:46 43.63730 -104.31369 35988 ft 455 kts 255°
2026-04-21 08:47 43.61555 -104.39494 35973 ft 455 kts 255°
2026-04-21 08:47 43.59357 -104.47676 35967 ft 454 kts 255°
2026-04-21 08:48 43.57158 -104.55833 35948 ft 454 kts 255°
2026-04-21 08:48 43.54951 -104.63994 35949 ft 454 kts 255°
2026-04-21 08:49 43.52740 -104.72142 35939 ft 454 kts 255°
2026-04-21 08:49 43.50537 -104.80232 35939 ft 454 kts 255°
2026-04-21 08:50 43.48314 -104.88370 35943 ft 454 kts 255°
2026-04-21 08:50 43.46098 -104.96457 35925 ft 454 kts 254°
2026-04-21 08:51 43.43850 -105.04629 35937 ft 453 kts 254°
2026-04-21 08:51 43.41632 -105.12670 35925 ft 453 kts 254°
2026-04-21 08:52 43.39391 -105.20765 35921 ft 453 kts 254°
2026-04-21 08:52 43.37143 -105.28859 35912 ft 453 kts 253°
2026-04-21 08:53 43.34891 -105.36946 35914 ft 453 kts 253°
2026-04-21 08:53 43.32645 -105.44979 35921 ft 454 kts 253°
2026-04-21 08:54 43.30380 -105.53055 35905 ft 454 kts 253°
2026-04-21 08:54 43.28100 -105.61158 35911 ft 455 kts 253°
2026-04-21 08:55 43.25820 -105.69241 35899 ft 454 kts 252°
2026-04-21 08:55 43.23545 -105.77268 35906 ft 454 kts 252°
2026-04-21 08:56 43.21256 -105.85323 35893 ft 454 kts 252°
2026-04-21 08:56 43.18961 -105.93380 35898 ft 453 kts 252°
2026-04-21 08:57 43.16665 -106.01412 35896 ft 453 kts 252°
2026-04-21 08:57 43.14363 -106.09438 35903 ft 452 kts 252°
2026-04-21 08:58 43.12078 -106.17385 35936 ft 451 kts 252°
2026-04-21 08:58 43.09719 -106.25342 35972 ft 453 kts 248°
2026-04-21 08:59 43.06518 -106.32805 36002 ft 458 kts 238°
2026-04-21 08:59 43.02774 -106.39851 36019 ft 458 kts 237°
2026-04-21 09:00 42.99019 -106.46900 36058 ft 460 kts 237°
2026-04-21 09:00 42.95292 -106.53933 36057 ft 461 kts 237°
2026-04-21 09:01 42.91532 -106.61041 36050 ft 462 kts 237°
2026-04-21 09:01 42.87765 -106.68151 35917 ft 463 kts 237°
2026-04-21 09:02 42.83984 -106.75269 35920 ft 463 kts 237°
2026-04-21 09:02 42.80230 -106.82319 35917 ft 463 kts 237°
2026-04-21 09:03 42.74551 -106.92951 35904 ft 463 kts 237°
2026-04-21 09:03 42.70757 -107.00033 35930 ft 463 kts 237°
2026-04-21 09:04 42.66985 -107.07056 35937 ft 463 kts 236°
2026-04-21 09:04 42.63187 -107.14113 35912 ft 463 kts 236°
2026-04-21 09:05 42.59386 -107.21157 35916 ft 462 kts 236°
2026-04-21 09:05 42.55586 -107.28183 35937 ft 462 kts 236°
2026-04-21 09:06 42.51787 -107.35193 35918 ft 462 kts 236°
2026-04-21 09:06 42.48018 -107.42131 35930 ft 461 kts 236°
2026-04-21 09:07 42.44203 -107.49134 35932 ft 461 kts 236°
2026-04-21 09:07 42.40397 -107.56107 35936 ft 461 kts 236°
2026-04-21 09:08 42.36584 -107.63076 35936 ft 461 kts 236°
2026-04-21 09:08 42.32795 -107.69984 35931 ft 460 kts 235°
2026-04-21 09:09 42.28975 -107.76937 35921 ft 460 kts 235°
2026-04-21 09:09 42.25159 -107.83863 35921 ft 460 kts 235°
2026-04-21 09:10 42.21340 -107.90777 35934 ft 459 kts 235°
2026-04-21 09:10 42.17556 -107.97613 35922 ft 459 kts 235°
2026-04-21 09:11 42.13729 -108.04513 35937 ft 459 kts 235°
2026-04-21 09:11 42.09907 -108.11387 35941 ft 459 kts 235°
2026-04-21 09:12 42.06075 -108.18263 35945 ft 459 kts 235°
2026-04-21 09:12 42.02268 -108.25080 35944 ft 459 kts 235°
2026-04-21 09:13 41.98427 -108.31940 35939 ft 459 kts 235°
2026-04-21 09:13 41.94582 -108.38795 35939 ft 459 kts 234°
2026-04-21 09:14 41.90732 -108.45642 35943 ft 459 kts 234°
2026-04-21 09:14 41.86909 -108.52423 35948 ft 458 kts 234°
2026-04-21 09:15 41.83068 -108.59223 35953 ft 457 kts 234°
2026-04-21 09:15 41.79232 -108.65999 35950 ft 456 kts 234°
2026-04-21 09:16 41.75393 -108.72768 35963 ft 456 kts 234°
2026-04-21 09:16 41.71555 -108.79517 36053 ft 455 kts 233°
2026-04-21 09:17 41.67740 -108.86212 36104 ft 455 kts 233°
2026-04-21 09:17 41.63902 -108.92936 36140 ft 454 kts 233°
2026-04-21 09:18 41.60062 -108.99643 36161 ft 454 kts 233°
2026-04-21 09:18 41.55801 -109.05875 36174 ft 455 kts 225°
2026-04-21 09:19 41.51303 -109.11755 36170 ft 456 kts 225°
2026-04-21 09:19 41.46778 -109.17677 35978 ft 456 kts 225°
2026-04-21 09:20 41.42268 -109.23605 35972 ft 455 kts 225°
2026-04-21 09:20 41.37764 -109.29530 35964 ft 455 kts 225°
2026-04-21 09:21 41.33263 -109.35444 35969 ft 454 kts 225°
2026-04-21 09:21 41.28796 -109.41299 35975 ft 454 kts 225°
2026-04-21 09:22 41.24294 -109.47187 35976 ft 454 kts 225°
2026-04-21 09:22 41.19796 -109.53057 35969 ft 453 kts 225°
2026-04-21 09:23 41.15307 -109.58903 35970 ft 452 kts 225°
2026-04-21 09:23 41.10812 -109.64746 35973 ft 451 kts 225°
2026-04-21 09:24 41.06361 -109.70521 35972 ft 451 kts 225°
2026-04-21 09:24 41.01875 -109.76328 35979 ft 451 kts 225°
2026-04-21 09:25 40.97389 -109.82124 35995 ft 450 kts 224°
2026-04-21 09:25 40.92900 -109.87911 35995 ft 450 kts 224°
2026-04-21 09:26 40.88445 -109.93644 36011 ft 450 kts 224°
2026-04-21 09:26 40.83956 -109.99409 36006 ft 450 kts 224°
2026-04-21 09:27 40.79470 -110.05160 36018 ft 450 kts 224°
2026-04-21 09:27 40.74965 -110.10922 36031 ft 451 kts 224°
2026-04-21 09:28 40.70482 -110.16647 36037 ft 451 kts 224°
2026-04-21 09:28 40.65970 -110.22391 36028 ft 451 kts 223°
2026-04-21 09:29 40.61450 -110.28139 36028 ft 451 kts 223°
2026-04-21 09:29 40.56937 -110.33870 36021 ft 451 kts 223°
2026-04-21 09:30 40.52459 -110.39543 36022 ft 450 kts 223°
2026-04-21 09:30 40.47954 -110.45237 36017 ft 449 kts 223°
2026-04-21 09:31 40.43455 -110.50913 36031 ft 447 kts 223°
2026-04-21 09:31 40.38968 -110.56561 36011 ft 446 kts 223°
2026-04-21 09:32 40.34526 -110.62145 36015 ft 445 kts 223°
2026-04-21 09:32 40.30064 -110.67742 35997 ft 444 kts 223°
2026-04-21 09:33 40.25596 -110.73334 36003 ft 444 kts 223°
2026-04-21 09:33 40.21127 -110.78919 36014 ft 444 kts 223°
2026-04-21 09:34 40.16682 -110.84462 36009 ft 444 kts 223°
2026-04-21 09:34 40.12209 -110.90029 36016 ft 444 kts 223°
2026-04-21 09:35 40.07724 -110.95599 36007 ft 445 kts 223°
2026-04-21 09:35 40.03244 -111.01156 35999 ft 444 kts 223°
2026-04-21 09:36 39.98760 -111.06706 36003 ft 444 kts 223°
2026-04-21 09:36 39.94309 -111.12204 36005 ft 444 kts 223°
2026-04-21 09:37 39.89823 -111.17736 36001 ft 444 kts 223°
2026-04-21 09:37 39.85337 -111.23256 35992 ft 443 kts 222°
2026-04-21 09:38 39.80860 -111.28758 35991 ft 442 kts 222°
2026-04-21 09:38 39.76413 -111.34206 35991 ft 442 kts 222°
2026-04-21 09:39 39.71948 -111.39669 35998 ft 441 kts 222°
2026-04-21 09:39 39.67472 -111.45138 35982 ft 442 kts 222°
2026-04-21 09:40 39.62982 -111.50613 36099 ft 446 kts 222°
2026-04-21 09:40 39.60717 -111.53369 36463 ft 445 kts 222°
2026-04-21 09:40 39.58470 -111.56103 36946 ft 441 kts 222°
2026-04-21 09:41 39.56272 -111.58775 37398 ft 438 kts 222°
2026-04-21 09:41 39.54051 -111.61472 37785 ft 437 kts 222°
2026-04-21 09:41 39.51826 -111.64170 37906 ft 440 kts 222°
2026-04-21 09:41 39.49588 -111.66882 37949 ft 441 kts 222°
2026-04-21 09:42 39.45122 -111.72286 37967 ft 438 kts 222°
2026-04-21 09:42 39.40684 -111.77648 37975 ft 435 kts 222°
2026-04-21 09:43 39.36293 -111.82942 37970 ft 434 kts 222°
2026-04-21 09:43 39.31881 -111.88252 37970 ft 433 kts 222°
2026-04-21 09:44 39.27470 -111.93553 37956 ft 433 kts 222°
2026-04-21 09:44 39.23050 -111.98855 37964 ft 434 kts 222°
2026-04-21 09:45 39.18654 -112.04118 37972 ft 435 kts 222°
2026-04-21 09:45 39.14207 -112.09433 37999 ft 436 kts 221°
2026-04-21 09:46 39.09750 -112.14744 38037 ft 437 kts 222°
2026-04-21 09:46 39.05281 -112.20058 38059 ft 438 kts 222°
2026-04-21 09:47 39.00836 -112.25336 38087 ft 438 kts 222°
2026-04-21 09:47 38.96366 -112.30636 38092 ft 437 kts 222°
2026-04-21 09:48 38.91890 -112.35933 38083 ft 437 kts 222°
2026-04-21 09:48 38.87418 -112.41216 38092 ft 437 kts 222°
2026-04-21 09:49 38.82974 -112.46457 38069 ft 437 kts 223°
2026-04-21 09:49 38.78490 -112.51736 37958 ft 438 kts 223°
2026-04-21 09:50 38.75482 -112.55272 37962 ft 439 kts 223°
2026-04-21 09:50 38.69486 -112.62307 37951 ft 440 kts 223°
2026-04-21 09:51 38.64968 -112.67597 37961 ft 441 kts 223°
2026-04-21 09:51 38.60471 -112.72853 37988 ft 441 kts 223°
2026-04-21 09:52 38.55945 -112.78134 38020 ft 441 kts 223°
2026-04-21 09:52 38.51418 -112.83407 38058 ft 440 kts 222°
2026-04-21 09:53 38.46907 -112.88652 38077 ft 438 kts 222°
2026-04-21 09:53 38.42442 -112.93836 38090 ft 436 kts 222°
2026-04-21 09:54 38.37962 -112.99027 38088 ft 434 kts 222°
2026-04-21 09:54 38.33190 -113.03684 38086 ft 433 kts 213°
2026-04-21 09:55 38.28081 -113.07790 38058 ft 433 kts 213°
2026-04-21 09:55 38.23026 -113.11875 38034 ft 434 kts 213°
2026-04-21 09:56 38.17936 -113.16005 37990 ft 435 kts 213°
2026-04-21 09:56 38.12832 -113.20148 37957 ft 435 kts 213°
2026-04-21 09:57 38.07727 -113.24285 37937 ft 436 kts 213°
2026-04-21 09:57 38.02644 -113.28398 37945 ft 437 kts 213°
2026-04-21 09:58 37.97498 -113.32554 37938 ft 438 kts 212°
2026-04-21 09:58 37.92351 -113.36705 37979 ft 439 kts 212°
2026-04-21 09:59 37.87195 -113.40845 37984 ft 439 kts 212°
2026-04-21 09:59 37.82094 -113.44908 37953 ft 439 kts 212°
2026-04-21 10:00 37.76897 -113.49038 37944 ft 438 kts 212°
2026-04-21 10:00 37.71754 -113.53124 37925 ft 436 kts 212°
2026-04-21 10:01 37.66619 -113.57197 37933 ft 435 kts 212°
2026-04-21 10:01 37.61534 -113.61226 37941 ft 434 kts 212°
2026-04-21 10:02 37.53864 -113.67290 37937 ft 434 kts 212°
2026-04-21 10:03 37.48746 -113.71327 37937 ft 434 kts 212°
2026-04-21 10:03 37.43621 -113.75365 37933 ft 435 kts 211°
2026-04-21 10:04 37.38506 -113.79390 37931 ft 437 kts 211°
2026-04-21 10:04 37.33340 -113.83442 37920 ft 438 kts 211°
2026-04-21 10:05 37.28160 -113.87501 37912 ft 440 kts 211°
2026-04-21 10:05 37.22964 -113.91567 37906 ft 440 kts 211°
2026-04-21 10:06 37.17758 -113.95634 37904 ft 441 kts 211°
2026-04-21 10:06 37.12578 -113.99674 37900 ft 441 kts 211°
2026-04-21 10:07 37.07365 -114.03734 37889 ft 441 kts 211°
2026-04-21 10:07 37.02154 -114.07787 37897 ft 441 kts 211°
2026-04-21 10:08 36.96939 -114.11834 37874 ft 440 kts 210°
2026-04-21 10:08 36.91739 -114.15862 37865 ft 439 kts 210°
2026-04-21 10:09 36.86584 -114.19851 37866 ft 438 kts 210°
2026-04-21 10:09 36.81397 -114.23859 37866 ft 438 kts 210°
2026-04-21 10:10 36.76338 -114.28079 37851 ft 438 kts 217°
2026-04-21 10:10 36.71886 -114.33277 37851 ft 440 kts 225°
2026-04-21 10:11 36.67724 -114.38818 37856 ft 441 kts 225°
2026-04-21 10:11 36.63528 -114.44377 37832 ft 440 kts 225°
2026-04-21 10:12 36.59323 -114.49908 37834 ft 439 kts 225°
2026-04-21 10:12 36.55129 -114.55406 37849 ft 438 kts 224°
2026-04-21 10:13 36.50943 -114.60883 37834 ft 437 kts 224°
2026-04-21 10:13 36.46779 -114.66323 37814 ft 437 kts 225°
2026-04-21 10:14 36.42597 -114.71779 37848 ft 436 kts 225°
2026-04-21 10:14 36.38410 -114.77233 37867 ft 436 kts 225°
2026-04-21 10:15 36.34210 -114.82678 37879 ft 437 kts 224°
2026-04-21 10:15 36.29972 -114.88083 37900 ft 437 kts 224°
2026-04-21 10:16 36.25754 -114.93448 37910 ft 438 kts 224°
2026-04-21 10:16 36.21501 -114.98861 37905 ft 439 kts 224°
2026-04-21 10:17 36.17239 -115.04280 37900 ft 439 kts 224°
2026-04-21 10:17 36.12981 -115.09687 37958 ft 438 kts 224°
2026-04-21 10:18 36.08754 -115.15117 37937 ft 439 kts 227°
2026-04-21 10:18 36.05145 -115.21147 37964 ft 440 kts 234°
2026-04-21 10:19 36.01770 -115.27459 37940 ft 440 kts 234°
2026-04-21 10:19 35.98381 -115.33750 37987 ft 440 kts 233°
2026-04-21 10:20 35.94980 -115.40022 37979 ft 439 kts 233°
2026-04-21 10:20 35.91611 -115.46213 37995 ft 437 kts 233°
2026-04-21 10:21 35.88219 -115.52437 37979 ft 436 kts 233°
2026-04-21 10:21 35.84832 -115.58638 37978 ft 436 kts 233°
2026-04-21 10:22 35.81444 -115.64832 37982 ft 436 kts 234°
2026-04-21 10:22 35.78054 -115.71020 37968 ft 435 kts 233°
2026-04-21 10:23 35.74686 -115.77154 37971 ft 436 kts 233°
2026-04-21 10:23 35.71286 -115.83337 37977 ft 436 kts 233°
2026-04-21 10:24 35.67878 -115.89526 37967 ft 438 kts 233°
2026-04-21 10:24 35.64453 -115.95734 37977 ft 439 kts 233°
2026-04-21 10:25 35.61127 -116.01983 37946 ft 440 kts 236°
2026-04-21 10:25 35.57918 -116.08384 37945 ft 440 kts 236°
2026-04-21 10:26 35.54710 -116.14782 37936 ft 440 kts 236°
2026-04-21 10:26 35.51482 -116.21157 37930 ft 439 kts 236°
2026-04-21 10:27 35.48269 -116.27463 37939 ft 438 kts 236°
2026-04-21 10:27 35.45034 -116.33795 37959 ft 438 kts 236°
2026-04-21 10:28 35.41797 -116.40120 37968 ft 438 kts 236°
2026-04-21 10:28 35.38556 -116.46443 37988 ft 438 kts 236°
2026-04-21 10:29 35.35320 -116.52745 37513 ft 436 kts 236°
2026-04-21 10:29 35.33732 -116.55833 37069 ft 431 kts 236°
2026-04-21 10:29 35.32144 -116.58920 36589 ft 427 kts 236°
2026-04-21 10:29 35.30566 -116.61985 36093 ft 423 kts 236°
2026-04-21 10:30 35.29002 -116.65019 35605 ft 420 kts 236°
2026-04-21 10:30 35.27446 -116.68033 35100 ft 417 kts 236°
2026-04-21 10:30 35.25904 -116.71019 34605 ft 415 kts 236°
2026-04-21 10:30 35.24362 -116.74002 34108 ft 413 kts 236°
2026-04-21 10:31 35.22830 -116.76962 33555 ft 410 kts 236°
2026-04-21 10:31 35.21309 -116.79900 33024 ft 408 kts 236°
2026-04-21 10:31 35.19815 -116.82782 32525 ft 406 kts 236°
2026-04-21 10:31 35.18308 -116.85686 32015 ft 403 kts 236°
2026-04-21 10:32 35.16810 -116.88571 31538 ft 401 kts 236°
2026-04-21 10:32 35.15319 -116.91439 31044 ft 399 kts 236°
2026-04-21 10:32 35.13834 -116.94296 30554 ft 397 kts 237°
2026-04-21 10:32 35.12356 -116.97137 30085 ft 396 kts 237°
2026-04-21 10:33 35.10882 -116.99967 29533 ft 394 kts 237°
2026-04-21 10:33 35.09423 -117.02768 29003 ft 392 kts 237°
2026-04-21 10:33 35.07975 -117.05545 28507 ft 390 kts 236°
2026-04-21 10:33 35.06522 -117.08329 28018 ft 387 kts 236°
2026-04-21 10:34 35.05080 -117.11090 27527 ft 385 kts 236°
2026-04-21 10:34 35.03642 -117.13839 27043 ft 383 kts 236°
2026-04-21 10:34 35.02209 -117.16578 26562 ft 382 kts 236°
2026-04-21 10:34 35.00785 -117.19295 26095 ft 380 kts 236°
2026-04-21 10:35 34.99365 -117.22004 25611 ft 378 kts 236°
2026-04-21 10:35 34.97953 -117.24698 25145 ft 377 kts 236°
2026-04-21 10:35 34.96542 -117.27387 24676 ft 375 kts 236°
2026-04-21 10:35 34.95156 -117.30026 24207 ft 374 kts 236°
2026-04-21 10:36 34.93752 -117.32697 23739 ft 374 kts 235°
2026-04-21 10:36 34.92352 -117.35358 23221 ft 373 kts 235°
2026-04-21 10:36 34.90957 -117.38008 22710 ft 371 kts 235°
2026-04-21 10:36 34.89565 -117.40650 22227 ft 368 kts 235°
2026-04-21 10:37 34.88188 -117.43263 21762 ft 364 kts 234°
2026-04-21 10:37 34.86853 -117.45798 21290 ft 347 kts 234°
2026-04-21 10:37 34.85585 -117.48204 20852 ft 331 kts 234°
2026-04-21 10:37 34.84364 -117.50520 20446 ft 317 kts 234°
2026-04-21 10:38 34.83176 -117.52767 20071 ft 315 kts 233°
2026-04-21 10:38 34.82005 -117.54975 19680 ft 315 kts 233°
2026-04-21 10:38 34.80815 -117.57219 19297 ft 316 kts 233°
2026-04-21 10:38 34.79624 -117.59465 18846 ft 317 kts 233°
2026-04-21 10:39 34.78428 -117.61719 18442 ft 318 kts 233°
2026-04-21 10:39 34.77225 -117.63986 17989 ft 319 kts 233°
2026-04-21 10:39 34.76017 -117.66259 17499 ft 321 kts 233°
2026-04-21 10:39 34.74805 -117.68542 17055 ft 322 kts 233°
2026-04-21 10:40 34.73591 -117.70826 16623 ft 322 kts 233°
2026-04-21 10:40 34.72378 -117.73110 16205 ft 321 kts 233°
2026-04-21 10:40 34.71181 -117.75361 15796 ft 321 kts 233°
2026-04-21 10:40 34.69966 -117.77643 15383 ft 322 kts 233°
2026-04-21 10:41 34.68751 -117.79925 14969 ft 322 kts 233°
2026-04-21 10:41 34.67535 -117.82207 14599 ft 322 kts 233°
2026-04-21 10:41 34.66317 -117.84489 14197 ft 322 kts 233°
2026-04-21 10:41 34.65127 -117.86802 13773 ft 324 kts 237°
2026-04-21 10:42 34.64168 -117.89286 13323 ft 325 kts 243°
2026-04-21 10:42 34.63291 -117.91814 12903 ft 325 kts 243°
2026-04-21 10:42 34.62429 -117.94305 12493 ft 324 kts 243°
2026-04-21 10:42 34.61551 -117.96822 12084 ft 323 kts 243°
2026-04-21 10:43 34.60670 -117.99326 11675 ft 323 kts 243°
2026-04-21 10:43 34.59783 -118.01828 11267 ft 322 kts 243°
2026-04-21 10:43 34.58896 -118.04319 10862 ft 322 kts 243°
2026-04-21 10:43 34.58006 -118.06811 10466 ft 321 kts 243°
2026-04-21 10:44 34.57124 -118.09276 10224 ft 314 kts 243°
2026-04-21 10:44 34.56273 -118.11656 10126 ft 302 kts 243°
2026-04-21 10:44 34.55452 -118.13950 9993 ft 291 kts 243°
2026-04-21 10:44 34.54667 -118.16135 9866 ft 281 kts 243°
2026-04-21 10:45 34.53891 -118.18294 9726 ft 271 kts 243°
2026-04-21 10:45 34.53140 -118.20379 9672 ft 277 kts 243°
2026-04-21 10:45 34.52372 -118.22513 9559 ft 275 kts 243°
2026-04-21 10:45 34.51625 -118.24623 9440 ft 271 kts 245°
2026-04-21 10:46 34.51035 -118.26777 9328 ft 268 kts 249°
2026-04-21 10:46 34.50512 -118.28938 9214 ft 267 kts 250°
2026-04-21 10:46 34.50000 -118.31096 9147 ft 268 kts 250°
2026-04-21 10:46 34.49484 -118.33249 9054 ft 270 kts 249°
2026-04-21 10:47 34.48946 -118.35462 8928 ft 270 kts 249°
2026-04-21 10:47 34.48420 -118.37609 8849 ft 269 kts 249°
2026-04-21 10:47 34.47883 -118.39778 8752 ft 269 kts 249°
2026-04-21 10:47 34.47344 -118.41944 8656 ft 268 kts 249°
2026-04-21 10:48 34.46806 -118.44104 8534 ft 267 kts 249°
2026-04-21 10:48 34.46272 -118.46248 8444 ft 265 kts 249°
2026-04-21 10:48 34.45738 -118.48380 8322 ft 263 kts 249°
2026-04-21 10:48 34.45207 -118.50490 8234 ft 261 kts 249°
2026-04-21 10:49 34.44679 -118.52592 8133 ft 260 kts 249°
2026-04-21 10:49 34.44153 -118.54685 8038 ft 260 kts 249°
2026-04-21 10:49 34.43632 -118.56751 7939 ft 260 kts 249°
2026-04-21 10:49 34.43104 -118.58839 7833 ft 259 kts 249°
2026-04-21 10:50 34.42578 -118.60922 7737 ft 259 kts 249°
2026-04-21 10:50 34.42049 -118.63010 7641 ft 259 kts 249°
2026-04-21 10:50 34.41523 -118.65091 7524 ft 258 kts 249°
2026-04-21 10:50 34.40999 -118.67167 7462 ft 258 kts 249°
2026-04-21 10:51 34.40470 -118.69251 7366 ft 260 kts 249°
2026-04-21 10:51 34.39938 -118.71346 7274 ft 261 kts 249°
2026-04-21 10:51 34.39406 -118.73444 7165 ft 262 kts 249°
2026-04-21 10:51 34.38867 -118.75553 7061 ft 261 kts 250°
2026-04-21 10:52 34.38343 -118.77625 6985 ft 261 kts 250°
2026-04-21 10:52 34.37809 -118.79734 6879 ft 261 kts 250°
2026-04-21 10:52 34.37276 -118.81834 6771 ft 260 kts 250°
2026-04-21 10:52 34.36739 -118.83921 6677 ft 260 kts 250°
2026-04-21 10:53 34.36000 -118.85850 6527 ft 252 kts 229°
2026-04-21 10:53 34.34614 -118.87118 6482 ft 254 kts 204°
2026-04-21 10:53 34.32893 -118.87686 6393 ft 260 kts 186°
2026-04-21 10:53 34.31081 -118.87615 6303 ft 262 kts 176°
2026-04-21 10:54 34.29290 -118.87341 6208 ft 263 kts 174°
2026-04-21 10:54 34.27479 -118.87033 6134 ft 263 kts 174°
2026-04-21 10:54 34.25672 -118.86730 6075 ft 261 kts 174°
2026-04-21 10:54 34.23877 -118.86437 6018 ft 259 kts 174°
2026-04-21 10:55 34.22099 -118.86156 5971 ft 255 kts 175°
2026-04-21 10:55 34.20366 -118.85887 5893 ft 246 kts 175°
2026-04-21 10:55 34.18699 -118.85632 5805 ft 237 kts 175°
2026-04-21 10:55 34.17053 -118.85386 5751 ft 239 kts 175°
2026-04-21 10:56 34.15442 -118.85145 5701 ft 233 kts 175°
2026-04-21 10:56 34.13855 -118.84909 5627 ft 228 kts 175°
2026-04-21 10:56 34.12292 -118.84679 5573 ft 225 kts 175°
2026-04-21 10:56 34.10735 -118.84449 5524 ft 226 kts 175°
2026-04-21 10:57 34.09167 -118.84218 5479 ft 228 kts 175°
2026-04-21 10:57 34.07592 -118.83986 5420 ft 228 kts 175°
2026-04-21 10:57 34.06016 -118.83755 5396 ft 228 kts 175°
2026-04-21 10:57 34.04441 -118.83525 5338 ft 228 kts 175°
2026-04-21 10:58 34.02885 -118.83217 5263 ft 226 kts 163°
2026-04-21 10:58 34.01482 -118.82418 5219 ft 226 kts 155°
2026-04-21 10:58 34.00105 -118.81574 5147 ft 217 kts 156°
2026-04-21 10:58 33.98856 -118.80678 5095 ft 204 kts 138°
2026-04-21 10:59 33.98060 -118.79299 5101 ft 199 kts 122°
2026-04-21 10:59 33.97449 -118.77837 5097 ft 193 kts 120°
2026-04-21 10:59 33.96859 -118.76382 4996 ft 196 kts 120°
2026-04-21 10:59 33.96262 -118.74911 4806 ft 194 kts 120°
2026-04-21 11:00 33.95679 -118.73479 4618 ft 192 kts 120°
2026-04-21 11:00 33.95092 -118.72045 4414 ft 191 kts 119°
2026-04-21 11:00 33.94505 -118.70616 4249 ft 190 kts 119°
2026-04-21 11:00 33.93915 -118.69185 4046 ft 191 kts 119°
2026-04-21 11:01 33.93326 -118.67758 3876 ft 190 kts 118°
2026-04-21 11:01 33.92753 -118.66325 3670 ft 189 kts 111°
2026-04-21 11:01 33.92627 -118.64761 3460 ft 189 kts 88°
2026-04-21 11:02 33.92830 -118.61564 2987 ft 192 kts 84°
2026-04-21 11:02 33.92985 -118.59988 2741 ft 188 kts 84°
2026-04-21 11:02 33.93142 -118.58454 2512 ft 187 kts 83°
2026-04-21 11:02 33.93300 -118.56924 2265 ft 181 kts 83°
2026-04-21 11:03 33.93448 -118.55480 2077 ft 163 kts 84°
2026-04-21 11:03 33.93586 -118.54133 1974 ft 166 kts 84°
2026-04-21 11:03 33.93726 -118.52772 1737 ft 160 kts 84°
2026-04-21 11:03 33.93861 -118.51460 1503 ft 156 kts 84°
2026-04-21 11:04 33.93994 -118.50155 1312 ft 157 kts 83°
2026-04-21 11:04 33.94127 -118.48864 1093 ft 158 kts 83°
2026-04-21 11:04 33.94261 -118.47547 866 ft 155 kts 83°
2026-04-21 11:04 33.94383 -118.46287 671 ft 153 kts 83°
2026-04-21 11:05 33.94513 -118.45016 462 ft 153 kts 82°
2026-04-21 11:05 33.94652 -118.43752 218 ft 152 kts 82°
2026-04-21 11:05 33.94781 -118.42513 105 ft 141 kts 84°
2026-04-21 11:05 33.94880 -118.41546 104 ft 92 kts 83°
2026-04-21 11:06 33.94933 -118.41040 102 ft 39 kts 82°
2026-04-21 11:06 33.94961 -118.40779 104 ft 18 kts 82°
2026-04-21 11:06 33.94956 -118.40677 104 ft 8 kts 137°
2026-04-21 11:06 33.94912 -118.40656 102 ft 8 kts 166°
2026-04-21 11:07 33.94870 -118.40690 102 ft 8 kts 247°
2026-04-21 11:07 33.94849 -118.40762 102 ft 10 kts 257°
2026-04-21 11:07 33.94838 -118.40844 99 ft 10 kts 264°
2026-04-21 11:07 33.94831 -118.40928 100 ft 10 kts 263°
2026-04-21 11:08 33.94822 -118.41023 100 ft 15 kts 263°
2026-04-21 11:08 33.94808 -118.41157 101 ft 17 kts 262°
2026-04-21 11:08 33.94762 -118.41283 102 ft 18 kts 207°
2026-04-21 11:08 33.94636 -118.41273 99 ft 19 kts 172°
2026-04-21 11:09 33.94507 -118.41254 99 ft 19 kts 174°
2026-04-21 11:09 33.94372 -118.41236 100 ft 19 kts 173°
2026-04-21 11:09 33.94238 -118.41216 100 ft 19 kts 173°
2026-04-21 11:09 33.94104 -118.41196 99 ft 19 kts 173°
2026-04-21 11:10 33.93971 -118.41175 98 ft 19 kts 173°
2026-04-21 11:10 33.93860 -118.41140 99 ft 15 kts 131°
2026-04-21 11:10 33.93857 -118.41028 98 ft 13 kts 84°
2026-04-21 11:10 33.93868 -118.40919 101 ft 13 kts 83°
2026-04-21 11:11 33.93897 -118.40820 100 ft 12 kts 31°
2026-04-21 11:11 33.93979 -118.40819 99 ft 12 kts 354°
2026-04-21 11:11 33.94024 -118.40867 100 ft 9 kts 278°
2026-04-21 11:11 33.94024 -118.40915 100 ft 3 kts 266°
2026-04-21 11:12 33.94022 -118.40932 99 ft 0 kts 263°